H1 CPF 2 NER 2021 6 30 9 181 01 glonass141 H2 1908801 9141 44850 2021 6 30 0 0 0 2021 7 3 23 45 0 900 1 1 0 0 0 1 H9 10 0 59395 0.00000 0 20795770.412 8007485.004 12439091.114 10 0 59395 900.00000 0 21996527.729 8654691.473 9611818.238 10 0 59395 1800.00000 0 22931764.054 9030584.061 6598030.940 10 0 59395 2700.00000 0 23553582.249 9167444.658 3456152.267 10 0 59395 3600.00000 0 23823667.984 9106834.598 247147.515 10 0 59395 4500.00000 0 23714972.379 8897602.815 -2966656.643 10 0 59395 5400.00000 0 23212943.155 8593590.276 -6122784.225 10 0 59395 6300.00000 0 22316250.502 8251127.772 -9159829.361 10 0 59395 7200.00000 0 21036975.263 7926433.394 -12018658.564 10 0 59395 8100.00000 0 19400249.635 7673020.731 -14643571.584 10 0 59395 9000.00000 0 17443363.784 7539228.669 -16983397.233 10 0 59395 9900.00000 0 15214374.600 7565978.736 -18992501.652 10 0 59395 10800.00000 0 12770273.985 7784856.471 -20631688.457 10 0 59395 11700.00000 0 10174792.818 8216599.498 -21868972.352 10 0 59395 12600.00000 0 7495932.409 8870057.727 -22680210.399 10 0 59395 13500.00000 0 4803326.682 9741670.877 -23049578.234 10 0 59395 14400.00000 0 2165545.476 10815486.511 -22969881.629 10 0 59395 15300.00000 0 -352548.109 12063718.573 -22442697.212 10 0 59395 16200.00000 0 -2692275.950 13447823.397 -21478339.650 10 0 59395 17100.00000 0 -4803355.372 14920048.074 -20095656.100 10 0 59395 18000.00000 0 -6645749.952 16425385.851 -18321652.195 10 0 59395 18900.00000 0 -8191084.129 17903855.893 -16190957.271 10 0 59395 19800.00000 0 -9423563.758 19293010.983 -13745139.720 10 0 59395 20700.00000 0 -10340365.598 20530566.925 -11031886.502 10 0 59395 21600.00000 0 -10951481.479 21557042.366 -8104063.508 10 0 59395 22500.00000 0 -11279025.938 22318297.410 -5018675.905 10 0 59395 23400.00000 0 -11356038.794 22767863.740 -1835749.672 10 0 59395 24300.00000 0 -11224835.506 22868968.125 1382843.054 10 0 59395 25200.00000 0 -10934977.033 22596164.307 4574591.173 10 0 59395 26100.00000 0 -10540946.721 21936505.070 7677560.203 10 0 59395 27000.00000 0 -10099633.715 20890205.935 10631592.304 10 0 59395 27900.00000 0 -9667730.034 19470773.332 13379467.448 10 0 59395 28800.00000 0 -9299151.509 17704592.727 15868003.494 10 0 59395 29700.00000 0 -9042591.231 15629994.510 18049074.645 10 0 59395 30600.00000 0 -8939308.056 13295837.061 19880529.629 10 0 59395 31500.00000 0 -9021242.408 10759666.075 21326993.117 10 0 59395 32400.00000 0 -9309537.742 8085526.329 22360536.376 10 0 59395 33300.00000 0 -9813528.910 5341515.879 22961205.627 10 0 59395 34200.00000 0 -10530239.325 2597182.946 23117399.141 10 0 59395 35100.00000 0 -11444407.864 -79128.266 22826086.792 10 0 59395 36000.00000 0 -12529044.708 -2622874.735 22092868.367 10 0 59395 36900.00000 0 -13746493.673 -4975749.002 20931869.596 10 0 59395 37800.00000 0 -15049957.809 -7087851.731 19365477.507 10 0 59395 38700.00000 0 -16385426.010 -8919513.936 17423919.337 10 0 59395 39600.00000 0 -17693921.617 -10442694.343 15144691.927 10 0 59395 40500.00000 0 -18913980.438 -11641894.649 12571851.188 10 0 59395 41400.00000 0 -19984255.679 -12514554.952 9755173.772 10 0 59395 42300.00000 0 -20846141.348 -13070912.850 6749205.779 10 0 59395 43200.00000 0 -21446304.334 -13333331.936 3612215.650 10 0 59395 44100.00000 0 -21739018.455 -13335127.545 405070.571 10 0 59395 45000.00000 0 -21688201.400 -13118938.708 -2809942.228 10 0 59395 45900.00000 0 -21269067.463 -12734714.713 -5970326.533 10 0 59395 46800.00000 0 -20469324.619 -12237401.185 -9014596.705 10 0 59395 47700.00000 0 -19289863.567 -11684423.725 -11883481.312 10 0 59395 48600.00000 0 -17744907.596 -11133076.078 -14521086.505 10 0 59395 49500.00000 0 -15861614.946 -10637924.226 -16875995.500 10 0 59395 50400.00000 0 -13679148.676 -10248337.333 -18902281.576 10 0 59395 51300.00000 0 -11247251.639 -10006251.279 -20560413.919 10 0 59395 52200.00000 0 -8624385.257 -9944260.663 -21818037.795 10 0 59395 53100.00000 0 -5875509.473 -10084121.199 -22650613.119 10 0 59395 54000.00000 0 -3069596.384 -10435726.876 -23041898.547 10 0 59395 54900.00000 0 -276981.381 -10996605.975 -22984271.326 10 0 59395 55800.00000 0 2433337.461 -11751957.832 -22478876.560 10 0 59395 56700.00000 0 4996338.974 -12675229.129 -21535602.985 10 0 59395 57600.00000 0 7353447.370 -13729205.464 -20172885.886 10 0 59395 58500.00000 0 9454726.719 -14867571.915 -18417341.252 10 0 59395 59400.00000 0 11260710.397 -16036876.338 -16303238.700 10 0 59395 60300.00000 0 12743789.996 -17178811.948 -13871823.888 10 0 59395 61200.00000 0 13889106.841 -18232722.168 -11170504.327 10 0 59395 62100.00000 0 14694910.531 -19138221.301 -8251915.155 10 0 59395 63000.00000 0 15172371.533 -19837819.785 -5172883.901 10 0 59395 63900.00000 0 15344857.916 -20279442.690 -1993315.360 10 0 59395 64800.00000 0 15246709.046 -20418734.946 1224980.847 10 0 59395 65700.00000 0 14921560.167 -20221055.967 4419496.440 10 0 59395 66600.00000 0 14420290.519 -19663079.861 7528240.211 10 0 59395 67500.00000 0 13798683.194 -18733934.240 10490939.370 10 0 59395 68400.00000 0 13114896.611 -17435830.308 13250203.166 10 0 59395 69300.00000 0 12426854.841 -15784158.367 15752626.482 10 0 59395 70200.00000 0 11789666.841 -13807045.269 17949812.765 10 0 59395 71100.00000 0 11253182.831 -11544392.535 19799297.583 10 0 59395 72000.00000 0 10859789.788 -9046435.350 21265356.144 10 0 59395 72900.00000 0 10642537.658 -6371881.969 22319680.697 10 0 59395 73800.00000 0 10623673.828 -3585710.014 22941916.128 10 0 59395 74700.00000 0 10813646.348 -756709.945 23120044.665 10 0 59395 75600.00000 0 11210617.012 2045124.140 22850613.277 10 0 59395 76500.00000 0 11800504.423 4751250.107 22138799.949 10 0 59395 77400.00000 0 12557555.483 7297171.720 20998317.629 10 0 59395 78300.00000 0 13445422.059 9624865.359 19451157.367 10 0 59395 79200.00000 0 14418698.872 11684940.645 17527174.703 10 0 59395 80100.00000 0 15424859.488 13438446.576 15263526.147 10 0 59395 81000.00000 0 16406510.689 14858249.115 12703965.172 10 0 59395 81900.00000 0 17303871.945 15929923.390 9898009.770 10 0 59395 82800.00000 0 18057376.799 16652123.365 6899996.260 10 0 59395 83700.00000 0 18610287.368 17036413.358 3768036.408 10 0 59395 84600.00000 0 18911211.891 17106568.075 562897.088 10 0 59395 85500.00000 0 18916418.652 16897370.032 -2653176.222 10 0 59396 0.00000 0 18591847.676 16452954.605 -5817669.353 10 0 59396 900.00000 0 17914733.246 15824772.182 -8869019.365 10 0 59396 1800.00000 0 16874768.155 15069253.296 -11747819.088 10 0 59396 2700.00000 0 15474756.232 14245275.993 -14397983.214 10 0 59396 3600.00000 0 13730725.711 13411542.586 -16767851.369 10 0 59396 4500.00000 0 11671495.087 12623977.911 -18811205.829 10 0 59396 5400.00000 0 9337708.553 11933259.880 -20488183.073 10 0 59396 6300.00000 0 6780379.788 11382587.810 -21766060.534 10 0 59396 7200.00000 0 4059004.204 11005783.882 -22619902.474 10 0 59396 8100.00000 0 1239317.902 10825808.770 -23033051.916 10 0 59396 9000.00000 0 -1609203.350 10853754.844 -22997458.760 10 0 59396 9900.00000 0 -4416000.668 11088359.844 -22513837.505 10 0 59396 10800.00000 0 -7112133.297 11516061.686 -21591651.558 10 0 59396 11700.00000 0 -9632911.814 12111591.934 -20248924.564 10 0 59396 12600.00000 0 -11920353.403 12839082.444 -18511882.686 10 0 59396 13500.00000 0 -13925357.058 13653637.814 -16414435.218 10 0 59396 14400.00000 0 -15609508.464 14503306.398 -13997504.102 10 0 59396 15300.00000 0 -16946440.001 15331365.696 -11308216.066 10 0 59396 16200.00000 0 -17922690.321 16078824.590 -8398973.870 10 0 59396 17100.00000 0 -18538029.225 16687035.793 -5326425.526 10 0 59396 18000.00000 0 -18805236.155 17100307.303 -2150352.550 10 0 59396 18900.00000 0 -18749343.866 17268401.984 1067500.251 10 0 59396 19800.00000 0 -18406381.316 17148819.347 4264629.909 10 0 59396 20700.00000 0 -17821670.821 16708763.182 7378991.157 10 0 59396 21600.00000 0 -17047753.047 15926712.263 10350199.084 10 0 59396 22500.00000 0 -16142028.650 14793528.302 13120695.178 10 0 59396 23400.00000 0 -15164216.824 13313055.083 15636854.374 10 0 59396 24300.00000 0 -14173738.010 11502183.981 17850012.420 10 0 59396 25200.00000 0 -13227130.660 9390383.377 19717394.697 10 0 59396 26100.00000 0 -12375609.857 7018711.625 21202929.780 10 0 59396 27000.00000 0 -11662869.201 4438354.313 22277933.491 10 0 59396 27900.00000 0 -11123216.864 1708745.842 22921651.662 10 0 59396 28800.00000 0 -10780122.612 -1104647.806 23121652.377 10 0 59396 29700.00000 0 -10645235.516 -3932794.717 22874061.174 10 0 59396 30600.00000 0 -10717912.678 -6705710.844 22183635.208 10 0 59396 31500.00000 0 -10985278.291 -9355115.514 21063675.103 10 0 59396 32400.00000 0 -11422810.714 -11817020.659 19535775.840 10 0 59396 33300.00000 0 -11995433.500 -14034148.240 17629420.624 10 0 59396 34200.00000 0 -12659065.592 -15958076.949 15381424.462 10 0 59396 35100.00000 0 -13362566.792 -17551030.119 12835236.716 10 0 59396 36000.00000 0 -14049997.975 -18787231.045 10040114.597 10 0 59396 36900.00000 0 -14663102.049 -19653769.348 7050182.138 10 0 59396 37800.00000 0 -15143901.918 -20150941.977 3923391.614 10 0 59396 38700.00000 0 -15437306.193 -20292054.129 720406.511 10 0 59396 39600.00000 0 -15493612.454 -20102687.762 -2496572.728 10 0 59396 40500.00000 0 -15270801.497 -19619467.842 -5665017.544 10 0 59396 41400.00000 0 -14736524.288 -18888377.767 -8723290.993 10 0 59396 42300.00000 0 -13869695.906 -17962694.637 -11611853.874 10 0 59396 43200.00000 0 -12661627.037 -16900631.529 -14274433.004 10 0 59396 44100.00000 0 -11116642.999 -15762786.546 -16659127.869 10 0 59396 45000.00000 0 -9252161.987 -14609506.923 -18719432.951 10 0 59396 45900.00000 0 -7098227.150 -13498280.245 -20415154.882 10 0 59396 46800.00000 0 -4696510.299 -12481263.745 -21713205.656 10 0 59396 47700.00000 0 -2098827.682 -11603056.806 -22588255.714 10 0 59396 48600.00000 0 634771.077 -10898811.402 -23023233.685 10 0 59396 49500.00000 0 3438261.650 -10392760.665 -23009662.747 10 0 59396 50400.00000 0 6242157.129 -10097227.949 -22547826.844 10 0 59396 51300.00000 0 8976168.859 -10012158.099 -21646763.574 10 0 59396 52200.00000 0 11571904.917 -10125190.349 -20324083.981 10 0 59396 53100.00000 0 13965493.471 -10412269.142 -18605623.020 10 0 59396 54000.00000 0 16100021.631 -10838766.135 -16524927.887 10 0 59396 54900.00000 0 17927688.207 -11361064.968 -14122594.634 10 0 59396 55800.00000 0 19411580.918 -11928540.570 -11445466.677 10 0 59396 56700.00000 0 20527004.652 -12485848.109 -8545711.505 10 0 59396 57600.00000 0 21262306.487 -12975423.578 -5479794.424 10 0 59396 58500.00000 0 21619164.496 -13340089.176 -2307370.244 10 0 59396 59400.00000 0 21612330.166 -13525652.459 909884.593 10 0 59396 60300.00000 0 21268837.355 -13483388.722 4109475.987 10 0 59396 61200.00000 0 20626713.095 -13172301.429 7229308.068 10 0 59396 62100.00000 0 19733246.402 -12561065.211 10208887.025 10 0 59396 63000.00000 0 18642889.498 -11629569.667 12990489.489 10 0 59396 63900.00000 0 17414880.831 -10369999.314 15520272.963 10 0 59396 64800.00000 0 16110690.401 -8787404.633 17749307.585 10 0 59396 65700.00000 0 14791394.673 -6899740.446 19634510.209 10 0 59396 66600.00000 0 13515090.690 -4737370.100 21139464.003 10 0 59396 67500.00000 0 12334456.776 -2342055.766 22235109.168 10 0 59396 68400.00000 0 11294560.631 234523.804 22900292.885 10 0 59396 69300.00000 0 10431005.090 2932667.487 23122169.125 10 0 59396 70200.00000 0 9768487.583 5686880.845 22896441.640 10 0 59396 71100.00000 0 9319832.307 8428349.402 22227446.076 10 0 59396 72000.00000 0 9085534.640 11087555.499 21128069.736 10 0 59396 72900.00000 0 9053836.407 13596932.281 19619510.256 10 0 59396 73800.00000 0 9201328.800 15893446.674 17730876.990 10 0 59396 74700.00000 0 9494058.164 17921005.614 15498641.707 10 0 59396 75600.00000 0 9889088.974 19632586.812 12965947.745 10 0 59396 76500.00000 0 10336459.304 20992006.075 10181789.448 10 0 59396 77400.00000 0 10781447.450 21975247.682 7200076.334 10 0 59396 78300.00000 0 11167054.996 22571302.086 4078598.815 10 0 59396 79200.00000 0 11436602.007 22782475.335 877914.533 10 0 59396 80100.00000 0 11536324.728 22624156.425 -2339823.601 10 0 59396 81000.00000 0 11417865.466 22124051.550 -5512075.070 10 0 59396 81900.00000 0 11040548.264 21320916.657 -8577131.453 10 0 59396 82800.00000 0 10373342.610 20262841.058 -11475323.738 10 0 59396 83700.00000 0 9396430.188 19005154.100 -14150192.959 10 0 59396 84600.00000 0 8102306.274 17608043.093 -16549600.368 10 0 59396 85500.00000 0 6496367.034 16133983.203 -18626754.373 10 0 59397 0.00000 0 4596955.776 14645088.160 -20341133.275 10 0 59397 900.00000 0 2434863.711 13200494.229 -21659285.057 10 0 59397 1800.00000 0 52305.669 11853887.818 -22555487.550 10 0 59397 2700.00000 0 -2498589.379 10651282.707 -23012256.031 10 0 59397 3600.00000 0 -5157709.201 9629139.398 -23020687.784 10 0 59397 4500.00000 0 -7859231.217 8812907.162 -22580636.756 10 0 59397 5400.00000 0 -10534142.392 8216049.475 -21700714.952 10 0 59397 6300.00000 0 -13112901.023 7839593.519 -20398120.652 10 0 59397 7200.00000 0 -15528129.047 7672221.946 -18698297.034 10 0 59397 8100.00000 0 -17717222.368 7690901.889 -16634428.240 10 0 59397 9000.00000 0 -19624770.185 7862023.326 -14246783.147 10 0 59397 9900.00000 0 -21204682.304 8142997.244 -11581920.281 10 0 59397 10800.00000 0 -22421936.028 8484244.495 -8691770.094 10 0 59397 11700.00000 0 -23253870.313 8831489.711 -5632613.246 10 0 59397 12600.00000 0 -23690974.160 9128261.859 -2463975.795 10 0 59397 13500.00000 0 -23737137.725 9318494.417 752536.366 10 0 59397 14400.00000 0 -23409357.433 9349114.260 3954440.300 10 0 59397 15300.00000 0 -22736909.316 9172509.184 7079591.949 10 0 59397 16200.00000 0 -21760027.228 8748769.500 10067391.153 10 0 59397 17100.00000 0 -20528143.069 8047609.074 12859952.320 10 0 59397 18000.00000 0 -19097764.238 7049885.055 15403218.236 10 0 59397 18900.00000 0 -17530078.196 5748652.645 17647996.119 10 0 59397 19800.00000 0 -15888384.804 4149710.825 19550896.905 10 0 59397 20700.00000 0 -14235463.731 2271616.324 21075160.789 10 0 59397 21600.00000 0 -12630986.197 145164.990 22191354.540 10 0 59397 22500.00000 0 -11129077.997 -2187638.353 22877928.568 10 0 59397 23400.00000 0 -9776134.064 -4675079.631 23121624.239 10 0 59397 24300.00000 0 -8608974.143 -7257643.828 22917724.663 10 0 59397 25200.00000 0 -7653414.964 -9870254.391 22270144.698 10 0 59397 26100.00000 0 -6923317.219 -12444752.621 21191358.638 10 0 59397 27000.00000 0 -6420146.126 -14912516.232 19702166.660 10 0 59397 27900.00000 0 -6133063.436 -17207110.350 17831303.736 10 0 59397 28800.00000 0 -6039546.951 -19266862.429 15614897.447 10 0 59397 29700.00000 0 -6106511.877 -21037255.420 13095783.767 10 0 59397 30600.00000 0 -6291887.550 -22473040.362 10322692.472 10 0 59397 31500.00000 0 -6546583.949 -23539980.576 7349316.542 10 0 59397 32400.00000 0 -6816765.881 -24216154.481 4233282.239 10 0 59397 33300.00000 0 -7046339.382 -24492761.895 1035038.829 10 0 59397 34200.00000 0 -7179545.477 -24374399.104 -2183311.048 10 0 59397 35100.00000 0 -7163551.329 -23878790.135 -5359217.843 10 0 59397 36000.00000 0 -6950928.329 -23035984.417 -8430904.756 10 0 59397 36900.00000 0 -6501911.018 -21887053.667 -11338576.190 10 0 59397 37800.00000 0 -5786339.524 -20482342.176 -14025590.695 10 0 59397 38700.00000 0 -4785201.331 -18879343.736 -16439574.573 10 0 59397 39600.00000 0 -3491705.073 -17140294.593 -18533453.331 10 0 59397 40500.00000 0 -1911838.772 -15329583.956 -20266379.921 10 0 59397 41400.00000 0 -64386.822 -13511091.443 -21604540.813 10 0 59397 42300.00000 0 2019596.846 -11745564.071 -22521823.402 10 0 59397 43200.00000 0 4297838.904 -10088143.545 -23000331.278 10 0 59397 44100.00000 0 6718377.265 -8586148.202 -23030736.944 10 0 59397 45000.00000 0 9221508.849 -7277202.999 -22612464.930 10 0 59397 45900.00000 0 11742073.418 -6187795.984 -21753701.732 10 0 59397 46800.00000 0 14211978.131 -5332321.401 -20471232.468 10 0 59397 47700.00000 0 16562857.121 -4712648.833 -18790107.680 10 0 59397 48600.00000 0 18728754.704 -4318235.286 -16743147.150 10 0 59397 49500.00000 0 20648719.870 -4126773.948 -14370290.809 10 0 59397 50400.00000 0 22269203.350 -4105350.559 -11717810.072 10 0 59397 51300.00000 0 23546157.088 -4212056.739 -8837395.679 10 0 59397 52200.00000 0 24446748.648 -4397990.215 -5785140.572 10 0 59397 53100.00000 0 24950619.407 -4609555.685 -2620438.650 10 0 59397 54000.00000 0 25050634.924 -4790967.409 595178.338 10 0 59397 54900.00000 0 24753097.427 -4886846.392 3799242.308 10 0 59397 55800.00000 0 24077413.077 -4844801.410 6929564.642 10 0 59397 56700.00000 0 23055229.679 -4617884.191 9925442.270 10 0 59397 57600.00000 0 21729082.599 -4166814.831 12728830.539 10 0 59397 58500.00000 0 20150607.013 -3461883.666 15285460.299 10 0 59397 59400.00000 0 18378392.370 -2484449.721 17545878.241 10 0 59397 60300.00000 0 16475569.312 -1227973.014 19466391.350 10 0 59397 61200.00000 0 14507229.898 301462.344 21009898.398 10 0 59397 62100.00000 0 12537788.237 2085156.218 22146593.866 10 0 59397 63000.00000 0 10628390.513 4092331.700 22854532.126 10 0 59397 63900.00000 0 8834480.928 6281183.767 23120042.281 10 0 59397 64800.00000 0 7203623.243 8600394.840 22937986.716 10 0 59397 65700.00000 0 5773666.881 10991055.784 22311859.035 10 0 59397 66600.00000 0 4571332.425 13388914.233 21253719.655 10 0 59397 67500.00000 0 3611274.066 15726858.854 19783970.065 10 0 59397 68400.00000 0 2895657.160 17937538.244 17930969.283 10 0 59397 69300.00000 0 2414268.007 19956007.324 15730498.852 10 0 59397 70200.00000 0 2145151.129 21722292.512 13225085.280 10 0 59397 71100.00000 0 2055747.548 23183769.817 10463191.476 10 0 59397 72000.00000 0 2104486.730 24297256.983 7498291.407 10 0 59397 72900.00000 0 2242765.757 25030732.190 4387844.583 10 0 59397 73800.00000 0 2417232.735 25364606.799 1192189.191 10 0 59397 74700.00000 0 2572278.311 25292497.769 -2026625.137 10 0 59397 75600.00000 0 2652629.836 24821466.125 -5206042.533 10 0 59397 76500.00000 0 2605937.891 23971710.140 -8284220.434 10 0 59397 77400.00000 0 2385244.671 22775724.840 -11201239.124 10 0 59397 78300.00000 0 1951228.344 21276962.155 -13900276.937 10 0 59397 79200.00000 0 1274126.585 19528047.246 -16328727.265 10 0 59397 80100.00000 0 335255.945 17588625.632 -18439234.517 10 0 59397 81000.00000 0 -871939.260 15522931.490 -20190627.861 10 0 59397 81900.00000 0 -2341354.963 13397179.463 -21548733.658 10 0 59397 82800.00000 0 -4054236.560 11276889.891 -22487050.008 10 0 59397 83700.00000 0 -5979730.672 9224260.172 -22987269.714 10 0 59397 84600.00000 0 -8075957.668 7295692.822 -23039641.139 10 0 59397 85500.00000 0 -10291560.812 5539584.223 -22643159.713 10 0 59398 0.00000 0 -12567667.747 3994466.621 -21805586.383 10 0 59398 900.00000 0 -14840182.510 2687581.056 -20543292.573 10 0 59398 1800.00000 0 -17042311.729 1633939.718 -18880935.333 10 0 59398 2700.00000 0 -19107219.230 835917.141 -16850968.778 10 0 59398 3600.00000 0 -20970697.690 283384.287 -14493002.268 10 0 59398 4500.00000 0 -22573744.787 -45620.735 -11853018.213 10 0 59398 5400.00000 0 -23864935.965 -183716.197 -8982465.547 10 0 59398 6300.00000 0 -24802494.329 -172546.146 -5937247.288 10 0 59398 7200.00000 0 -25355971.181 -60766.536 -2776622.870 10 0 59398 8100.00000 0 -25507467.371 98264.833 437952.478 10 0 59398 9000.00000 0 -25252345.223 248995.302 3644027.962 10 0 59398 9900.00000 0 -24599402.352 336274.015 6779372.904 10 0 59398 10800.00000 0 -23570501.533 307927.584 9783183.868 10 0 59398 11700.00000 0 -22199673.512 117205.501 12597259.711 10 0 59398 12600.00000 0 -20531731.655 -275007.985 15167121.884 10 0 59398 13500.00000 0 -18620457.426 -898308.578 17443058.994 10 0 59398 14400.00000 0 -16526433.099 -1771292.247 19381076.345 10 0 59398 15300.00000 0 -14314612.321 -2900542.920 20943733.314 10 0 59398 16200.00000 0 -12051729.397 -4280129.782 22100853.802 10 0 59398 17100.00000 0 -9803654.191 -5891635.353 22830097.508 10 0 59398 18000.00000 0 -7632801.412 -7704713.525 23117382.264 10 0 59398 18900.00000 0 -5595700.305 -9678155.162 22957150.361 10 0 59398 19800.00000 0 -3740823.929 -11761418.183 22352474.406 10 0 59398 20700.00000 0 -2106766.545 -13896559.944 21315000.869 10 0 59398 21600.00000 0 -720843.290 -16020493.399 19864732.146 10 0 59398 22500.00000 0 401830.868 -18067475.048 18029650.586 10 0 59398 23400.00000 0 1258745.344 -19971722.842 15845190.665 10 0 59398 24300.00000 0 1859864.942 -21670056.524 13353568.083 10 0 59398 25200.00000 0 2226973.184 -23104451.385 10602977.253 10 0 59398 26100.00000 0 2392515.245 -24224399.334 7646671.236 10 0 59398 27000.00000 0 2397988.781 -24988978.573 4541940.652 10 0 59398 27900.00000 0 2291950.001 -25368544.710 1349010.290 10 0 59398 28800.00000 0 2127718.799 -25345971.347 -1870125.737 10 0 59398 29700.00000 0 1960879.853 -24917386.757 -5052907.882 10 0 59398 30600.00000 0 1846685.733 -24092374.164 -8137430.606 10 0 59398 31500.00000 0 1837472.613 -22893625.619 -11063652.954 10 0 59398 32400.00000 0 1980199.159 -21356062.621 -13774575.978 10 0 59398 33300.00000 0 2314214.270 -19525459.226 -16217363.103 10 0 59398 34200.00000 0 2869349.878 -17456624.695 -18344380.497 10 0 59398 35100.00000 0 3664421.387 -15211221.497 -20114136.203 10 0 59398 36000.00000 0 4706201.062 -12855310.068 -21492098.864 10 0 59398 36900.00000 0 5988909.528 -10456723.448 -22451379.291 10 0 59398 37800.00000 0 7494248.510 -8082382.062 -22973261.068 10 0 59398 38700.00000 0 9191974.827 -5795661.384 -23047569.519 10 0 59398 39600.00000 0 11040992.542 -3653923.005 -22672871.594 10 0 59398 40500.00000 0 12990918.081 -1706312.372 -21856502.798 10 0 59398 41400.00000 0 14984052.978 8084.855 -20614420.685 10 0 59398 42300.00000 0 16957681.432 1461651.241 -18970888.025 10 0 59398 43200.00000 0 18846596.091 2639152.881 -16957992.143 10 0 59398 44100.00000 0 20585745.700 3538124.616 -14615010.242 10 0 59398 45000.00000 0 22112893.044 4168710.771 -11987633.716 10 0 59398 45900.00000 0 23371171.233 4552970.218 -9127067.257 10 0 59398 46800.00000 0 24311430.799 4723677.283 -6089021.131 10 0 59398 47700.00000 0 24894278.963 4722671.318 -2932617.179 10 0 59398 48600.00000 0 25091725.757 4598826.785 280769.245 10 0 59398 49500.00000 0 24888368.436 4405731.549 3488708.080 10 0 59398 50400.00000 0 24282065.289 4199173.058 6628930.006 10 0 59398 51300.00000 0 23284071.680 4034539.833 9640534.508 10 0 59398 52200.00000 0 21918633.708 3964248.760 12465166.996 10 0 59398 53100.00000 0 20222057.667 4035307.033 15048142.286 10 0 59398 54000.00000 0 18241295.148 4287111.489 17339493.321 10 0 59398 54900.00000 0 16032103.456 4749577.617 19294925.800 10 0 59398 55800.00000 0 13656858.321 5441676.437 20876661.423 10 0 59398 56700.00000 0 11182109.671 6370440.186 22054154.876 10 0 59398 57600.00000 0 8675981.314 7530478.255 22804672.180 10 0 59398 58500.00000 0 6205521.386 8904023.627 23113720.498 10 0 59398 59400.00000 0 3834111.961 10461508.364 22975322.227 10 0 59398 60300.00000 0 1619043.444 12162645.025 22392128.754 10 0 59398 61200.00000 0 -390647.330 13957970.162 21375371.933 10 0 59398 62100.00000 0 -2155987.353 15790787.177 19944653.970 10 0 59398 63000.00000 0 -3649452.351 17599429.344 18127579.047 10 0 59398 63900.00000 0 -4855869.788 19319750.341 15959232.715 10 0 59398 64800.00000 0 -5772803.144 20887739.998 13481517.734 10 0 59398 65700.00000 0 -6410401.775 22242157.243 10742357.649 10 0 59398 66600.00000 0 -6790722.615 23327070.869 7794782.080 10 0 59398 67500.00000 0 -6946551.996 24094201.973 4695910.102 10 0 59398 68400.00000 0 -6919776.776 24504969.475 1505850.364 10 0 59398 69300.00000 0 -6759373.088 24532151.950 -1713461.297 10 0 59398 70200.00000 0 -6519097.448 24161094.613 -4899464.425 10 0 59398 71100.00000 0 -6254977.946 23390409.054 -7990193.183 10 0 59398 72000.00000 0 -6022712.089 22232134.520 -10925487.947 10 0 59398 72900.00000 0 -5875082.293 20711352.220 -13648174.880 10 0 59398 73800.00000 0 -5859499.640 18865267.233 -16105189.619 10 0 59398 74700.00000 0 -6015781.274 16741795.375 -18248622.025 10 0 59398 75600.00000 0 -6374257.163 14397713.383 -20036660.717 10 0 59398 76500.00000 0 -6954287.975 11896449.418 -21434418.059 10 0 59398 77400.00000 0 -7763258.349 9305606.315 -22414618.756 10 0 59398 78300.00000 0 -8796089.584 6694321.268 -22958138.092 10 0 59398 79200.00000 0 -10035293.607 4130572.558 -23054378.955 10 0 59398 80100.00000 0 -11451566.948 1678546.200 -22701480.075 10 0 59398 81000.00000 0 -13004900.372 -603827.383 -21906351.402 10 0 59398 81900.00000 0 -14646157.898 -2667063.840 -20684536.005 10 0 59398 82800.00000 0 -16319058.744 -4471951.352 -19059901.413 10 0 59398 83700.00000 0 -17962478.686 -5990937.496 -17064166.751 10 0 59398 84600.00000 0 -19512973.642 -7209019.735 -14736275.306 10 0 59398 85500.00000 0 -20907418.772 -8124103.748 -12121625.401 99